Location: Saluda
(35.2377°N, 82.3468°W)
Time: 06:07:41
(UTC+00:00)

Vanguard 2 - Pass Details

Date: 03 October 2022
Orbit: 553 x 2933 km, 32.9° (Epoch: 26 November)

Event Time Altitude Azimuth Distance (km) Brightness Sun altitude
Rises 18:57:07 0° 252° (WSW) 4,730 12.1 44.3°
Reaches altitude 10° 18:59:46 10° 251° (WSW) 4,012 12.0 44.0°
Maximum altitude 19:11:18 77° 168° (SSE) 2,424 11.0 42.5°
Drops below altitude 10° 19:28:36 10° 86° (E) 5,729 11.7 40.1°
Sets 19:33:13 0° 85° (E) 6,787 12.0 39.4°
